Weather History for Cooperstown, ND

Change the Weather History Date:

Friday, October 25, 2013

  Actual Average (KJMS) Record (KJMS)
Temperature  
Mean Temperature 40 °F 40 °F  
Max Temperature 57 °F 51 °F 82 °F (1989)
Min Temperature 24 °F 29 °F 5 °F (1919)
Degree Days  
Heating Degree Days 24 25  
Month to date heating degree days 489  
Since 1 July heating degree days 807  
Cooling Degree Days 0 0  
Month to date cooling degree days 0  
Year to date cooling degree days 445  
Moisture  
Dew Point 31 °F    
Average Humidity 74    
Maximum Humidity 100    
Minimum Humidity 36    
Precipitation  
Precipitation 0.00 in 0.05 in 0.54 in (2010)
Month to date precipitation 1.32  
Year to date precipitation 17.51  
Sea Level Pressure  
Sea Level Pressure 29.95 in    
Wind  
Wind Speed 14 mph (West)    
Max Wind Speed 28 mph    
Max Gust Speed 37 mph    
Visibility 10 miles    
Events      
T = Trace of Precipitation, MM = Missing Value Source: NWS Daily Summary

Daily Weather History Graph

Daily Weather History Graph

Search for Another Location

Airport:

Trip Planner

Search our weather history database for the weather conditions in past years. The results will help you decide how hot, cold, wet, or windy it might be!

Date:

Astronomy

Oct. 25, 2013 Rise Set
Actual Time 8:06 AM CDT 6:26 PM CDT
Civil Twilight 7:34 AM CDT 6:57 PM CDT
Nautical Twilight 6:58 AM CDT 7:33 PM CDT
Astronomical Twilight 6:22 AM CDT 8:09 PM CDT
Moon 11:41 PM CDT (10/25) 1:54 PM CDT (10/25)
Length of Visible Light 11h 23m
Length of Day
10h 20m
Waning Gibbous, 62% of the Moon is Illuminated
Oct 25
Waning Gibbous
Oct 26
Last Quarter
Nov 3
New
Nov 9
First Quarter
Nov 17
Full

Hourly Weather History & Observations

Time (CDT) Temp. Windchill Dew Point Humidity Pressure Visibility Wind Dir Wind Speed Gust Speed Precip Events Conditions
12:15 AM 24.8 °F 15.3 °F 24.8 °F 100% 30.24 in 10.0 mi SW 9.2 mph - N/A   Clear
12:35 AM 26.6 °F 18.2 °F 26.6 °F 100% 30.23 in 10.0 mi SW 8.1 mph - N/A   Clear
12:55 AM 24.8 °F 16.1 °F 24.8 °F 100% 30.22 in 10.0 mi SW 8.1 mph - N/A   Clear
1:15 AM 24.8 °F 16.1 °F 24.8 °F 100% 30.21 in 10.0 mi WSW 8.1 mph - N/A   Clear
1:35 AM 24.8 °F 16.1 °F 24.8 °F 100% 30.20 in 10.0 mi SW 8.1 mph - N/A   Clear
1:55 AM 26.6 °F 18.2 °F 26.6 °F 100% 30.19 in 10.0 mi SSW 8.1 mph - N/A   Clear
2:15 AM 26.6 °F 17.5 °F 26.6 °F 100% 30.18 in 10.0 mi SSW 9.2 mph - N/A   Clear
2:35 AM 28.4 °F 19.1 °F 26.6 °F 93% 30.17 in 10.0 mi SSW 10.4 mph - N/A   Clear
2:55 AM 26.6 °F 17.5 °F 26.6 °F 100% 30.16 in 10.0 mi SSW 9.2 mph - N/A   Clear
3:15 AM 26.6 °F 17.5 °F 26.6 °F 100% 30.16 in 10.0 mi SSW 9.2 mph - N/A   Clear
3:35 AM 26.6 °F 18.2 °F 26.6 °F 100% 30.16 in 10.0 mi SW 8.1 mph - N/A   Clear
3:55 AM 26.6 °F 18.2 °F 26.6 °F 100% 30.15 in 10.0 mi SW 8.1 mph - N/A   Clear
4:15 AM 28.4 °F 19.1 °F 26.6 °F 93% 30.13 in 10.0 mi SSW 10.4 mph - N/A   Clear
4:35 AM 28.4 °F 18.0 °F 26.6 °F 93% 30.10 in 10.0 mi SSW 12.7 mph - N/A   Clear
4:55 AM 28.4 °F 16.6 °F 28.4 °F 100% 30.08 in 10.0 mi SSW 16.1 mph 25.3 mph N/A   Clear
5:15 AM 30.2 °F 20.2 °F 28.4 °F 93% 30.09 in 10.0 mi SSW 12.7 mph 18.4 mph N/A   Clear
5:35 AM 28.4 °F 17.5 °F 28.4 °F 100% 30.07 in 10.0 mi SSW 13.8 mph - N/A   Clear
5:55 AM 30.2 °F 18.9 °F 28.4 °F 93% 30.05 in 10.0 mi SSW 16.1 mph 21.9 mph N/A   Clear
6:15 AM 30.2 °F 18.9 °F 28.4 °F 93% 30.05 in 10.0 mi SSW 16.1 mph 23.0 mph N/A   Clear
6:35 AM 30.2 °F 19.3 °F 28.4 °F 93% 30.03 in 10.0 mi SSW 15.0 mph 20.7 mph N/A   Clear
6:55 AM 30.2 °F 20.2 °F 28.4 °F 93% 30.02 in 10.0 mi SSW 12.7 mph 21.9 mph N/A   Clear
7:15 AM 30.2 °F 20.2 °F 28.4 °F 93% 30.02 in 10.0 mi SSW 12.7 mph - N/A   Clear
7:35 AM 30.2 °F 19.8 °F 28.4 °F 93% 30.01 in 10.0 mi SSW 13.8 mph - N/A   Clear
7:55 AM 32.0 °F 22.1 °F 30.2 °F 93% 29.99 in 10.0 mi SSW 13.8 mph 20.7 mph N/A   Clear
8:15 AM 32.0 °F 22.5 °F 30.2 °F 93% 29.98 in 10.0 mi SSW 12.7 mph 19.6 mph N/A   Clear
8:35 AM 32.0 °F 22.1 °F 30.2 °F 93% 29.96 in 10.0 mi SSW 13.8 mph 24.2 mph N/A   Clear
8:55 AM 32.0 °F 21.6 °F 30.2 °F 93% 29.95 in 10.0 mi SSW 15.0 mph - N/A   Clear
9:15 AM 32.0 °F 21.6 °F 30.2 °F 93% 29.92 in 10.0 mi SSW 15.0 mph 21.9 mph N/A   Clear
9:35 AM 32.0 °F 20.8 °F 32.0 °F 100% 29.90 in 10.0 mi SSW 17.3 mph 25.3 mph N/A   Clear
9:55 AM 35.6 °F 24.5 °F 32.0 °F 87% 29.88 in 10.0 mi SSW 20.7 mph 27.6 mph N/A   Clear
10:15 AM 37.4 °F 26.9 °F 32.0 °F 81% 29.85 in 10.0 mi SW 20.7 mph 26.5 mph N/A   Clear
10:35 AM 39.2 °F 29.6 °F 32.0 °F 75% 29.84 in 10.0 mi SW 19.6 mph 28.8 mph N/A   Clear
10:55 AM 41.0 °F 31.9 °F 33.8 °F 76% 29.84 in 10.0 mi WSW 19.6 mph 29.9 mph N/A   Clear
11:15 AM 42.8 °F 34.5 °F 35.6 °F 76% 29.85 in 10.0 mi WSW 18.4 mph 25.3 mph N/A   Clear
11:35 AM 44.6 °F 36.9 °F 37.4 °F 76% 29.85 in 10.0 mi West 18.4 mph 26.5 mph N/A   Clear
11:55 AM 46.4 °F 38.1 °F 37.4 °F 71% 29.83 in 10.0 mi West 24.2 mph 28.8 mph N/A   Clear
12:15 PM 50.0 °F - 37.4 °F 62% 29.82 in 10.0 mi West 21.9 mph 33.4 mph N/A   Clear
12:35 PM 50.0 °F - 39.2 °F 66% 29.82 in 10.0 mi West 27.6 mph 34.5 mph N/A   Clear
12:55 PM 50.0 °F - 39.2 °F 66% 29.82 in 10.0 mi West 25.3 mph 31.1 mph N/A   Clear
1:15 PM 51.8 °F - 39.2 °F 62% 29.82 in 10.0 mi West 23.0 mph 26.5 mph N/A   Clear
1:35 PM 53.6 °F - 39.2 °F 58% 29.81 in 10.0 mi WNW 23.0 mph 28.8 mph N/A   Clear
1:55 PM 55.4 °F - 39.2 °F 54% 29.80 in 10.0 mi WNW 21.9 mph 27.6 mph N/A   Clear
2:15 PM 55.4 °F - 39.2 °F 54% 29.80 in 10.0 mi NW 20.7 mph 29.9 mph N/A   Clear
2:35 PM 55.4 °F - 37.4 °F 51% 29.79 in 10.0 mi WNW 20.7 mph 28.8 mph N/A   Clear
2:55 PM 57.2 °F - 35.6 °F 44% 29.78 in 10.0 mi WNW 18.4 mph 23.0 mph N/A   Clear
3:15 PM 57.2 °F - 33.8 °F 41% 29.78 in 10.0 mi NW 21.9 mph 26.5 mph N/A   Clear
3:35 PM 57.2 °F - 32.0 °F 38% 29.77 in 10.0 mi WNW 21.9 mph 32.2 mph N/A   Clear
3:55 PM 57.2 °F - 30.2 °F 36% 29.78 in 10.0 mi WNW 21.9 mph 36.8 mph N/A   Clear
4:15 PM 57.2 °F - 30.2 °F 36% 29.77 in 10.0 mi WNW 27.6 mph 35.7 mph N/A   Clear
4:35 PM 57.2 °F - 30.2 °F 36% 29.77 in 10.0 mi WNW 27.6 mph 35.7 mph N/A   Clear
4:55 PM 57.2 °F - 30.2 °F 36% 29.78 in 10.0 mi WNW 23.0 mph 33.4 mph N/A   Clear
5:15 PM 55.4 °F - 28.4 °F 36% 29.79 in 10.0 mi NW 25.3 mph 36.8 mph N/A   Clear
5:35 PM 55.4 °F - 32.0 °F 41% 29.79 in 10.0 mi NW 19.6 mph 28.8 mph N/A   Clear
5:55 PM 53.6 °F - 32.0 °F 44% 29.80 in 10.0 mi NW 21.9 mph 33.4 mph N/A   Clear
6:15 PM 53.6 °F - 32.0 °F 44% 29.80 in 10.0 mi NW 21.9 mph 28.8 mph N/A   Clear
6:35 PM 51.8 °F - 32.0 °F 47% 29.82 in 10.0 mi NW 19.6 mph 26.5 mph N/A   Clear
6:55 PM 50.0 °F - 32.0 °F 50% 29.83 in 10.0 mi NNW 21.9 mph 26.5 mph N/A   Clear
7:15 PM 48.2 °F - 32.0 °F 54% 29.84 in 10.0 mi NNW 20.7 mph 26.5 mph N/A   Clear
7:35 PM 46.4 °F 39.2 °F 32.0 °F 57% 29.86 in 10.0 mi NNW 18.4 mph 24.2 mph N/A   Clear
7:55 PM 46.4 °F 38.5 °F 32.0 °F 57% 29.87 in 10.0 mi NNW 21.9 mph 26.5 mph N/A   Clear
8:15 PM 46.4 °F 39.0 °F 32.0 °F 57% 29.88 in 10.0 mi NNW 19.6 mph 29.9 mph N/A   Clear
8:35 PM 44.6 °F 36.4 °F 32.0 °F 61% 29.89 in 10.0 mi NNW 20.7 mph 26.5 mph N/A   Clear
8:55 PM 42.8 °F 34.0 °F 30.2 °F 61% 29.90 in 10.0 mi NNW 20.7 mph 25.3 mph N/A   Clear
9:15 PM 42.8 °F 34.0 °F 28.4 °F 57% 29.91 in 10.0 mi NNW 20.7 mph 26.5 mph N/A   Clear
9:35 PM 41.0 °F 32.5 °F 28.4 °F 61% 29.92 in 10.0 mi NNW 17.3 mph - N/A   Clear
9:55 PM 41.0 °F 32.5 °F 30.2 °F 65% 29.93 in 10.0 mi NNW 17.3 mph 24.2 mph N/A   Clear
10:15 PM 39.2 °F 31.2 °F 32.0 °F 75% 29.94 in 10.0 mi North 13.8 mph - N/A   Clear
10:35 PM 37.4 °F 29.8 °F 32.0 °F 81% 29.95 in 10.0 mi North 11.5 mph - N/A   Scattered Clouds
10:55 PM 37.4 °F 31.4 °F 32.0 °F 81% 29.96 in 10.0 mi NNW 8.1 mph - N/A   Mostly Cloudy
11:15 PM 37.4 °F 29.3 °F 28.4 °F 70% 29.98 in 10.0 mi NW 12.7 mph 21.9 mph N/A   Mostly Cloudy
11:35 PM 37.4 °F 28.9 °F 28.4 °F 70% 29.98 in 10.0 mi NNW 13.8 mph 19.6 mph N/A   Partly Cloudy
11:55 PM 37.4 °F 27.8 °F 26.6 °F 65% 29.98 in 10.0 mi NNW 17.3 mph - N/A   Clear